{"data":{"norad_id":58602,"intl_designator":"2023-200P","name":"STARLINK-31071","alt_names":[],"object_type":"PAYLOAD","status":"ACTIVE","operator":null,"country":"US","launch_date":"2023-12-19","launch_site_code":"AFETR","launch_vehicle":null,"mission":null,"orbit_class":"UNKNOWN","rcs_meters":null,"size_class":null,"mass_kg":null,"dimensions":null,"purposes":["comms"],"wikipedia_slug":null,"has_3d_model":false,"image_url":null,"decayed_at":null,"tle_current":{"epoch":"2026-05-25T03:32:46.893408Z","epoch_age_seconds":69194,"freshness":"FRESH","line1":"1 58602U 23200P   26145.14776497  .00000102  00000+0  13241-4 0  9998","line2":"2 58602  43.0027 296.8812 0001355 257.5862 102.4838 15.27571110137180","mean_motion":15.2757111,"eccentricity":0.0001355,"inclination_deg":43.0027,"raan_deg":296.8812,"arg_perigee_deg":257.5862,"mean_anomaly_deg":102.4838,"bstar":1.3241e-5,"rev_number":13718,"period_min":94.267297317504,"perigee_km":482.14602170389,"apogee_km":484.00541034994,"semimajor_km":6861.2127160269,"source":"CELESTRAK","updated_at":"2026-05-25T13:38:18.701532Z"}}}